[Date Prev][Date Next][Thread Prev][Thread Next] - [Date Index][Thread Index][Author Index]
2 Line ISS Keps 5-30
- Subject: [sarex] 2 Line ISS Keps 5-30
- From: "Dave Larsen PhD" <doc@xxxxxxxxxxx>
- Date: Mon, 29 May 2006 20:33:01 -0700
ISS
1 25544U 98067A 06148.91178571 +.00014518 +00000-0 +96478-4 0 00132
2 25544 051.6346 286.7326 0008913 260.3984 244.2229 15.75697186430124
----
Via the sarex mailing list at AMSAT.ORG courtesy of AMSAT-NA.
To unsubscribe, send "unsubscribe sarex" to Majordomo@amsat.org
AMSAT Home